Location: Unspecified
(40.7945°N, 0.0000°E)
Time: 13:48:47
(UTC+00:00)

Vanguard 2 - Visible Passes

Search period start: 23 January 2021 00:00
Search period end: 02 February 2021 00:00
Orbit: 553 x 2937 km, 32.9° (Epoch: 23 January)

Date Brightness Start Highest point End Pass type
(mag) Time Alt. Az. Time Alt. Az. Time Alt. Az.
23 Jan 8.5 18:31:38 10° WSW 18:35:41 35° S 18:39:27 17° ESE visible
23 Jan 9.9 20:39:01 10° WSW 20:40:52 19° SW 20:40:52 19° SW visible
24 Jan 8.7 18:49:19 10° WSW 18:53:22 33° S 18:56:21 21° SE visible
24 Jan 10.4 20:57:05 10° WSW 20:57:46 13° WSW 20:57:46 13° WSW visible
25 Jan 8.9 19:07:05 10° WSW 19:11:05 30° S 19:13:18 23° SSE visible
26 Jan 9.2 19:24:58 10° WSW 19:28:48 25° S 19:30:17 22° SSE visible
27 Jan 8.6 17:35:07 10° WSW 17:38:36 29° S 17:42:45 10° ESE visible
27 Jan 9.5 19:43:03 10° WSW 19:46:32 20° SSW 19:47:20 19° S visible
28 Jan 8.8 17:52:53 10° WSW 17:56:16 26° S 18:00:18 10° SE visible
28 Jan 9.9 20:01:32 10° SW 20:04:16 14° SSW 20:04:27 14° SSW visible
29 Jan 9.1 18:10:46 10° WSW 18:13:56 22° S 18:17:41 10° SE visible
30 Jan 9.4 18:28:51 10° WSW 18:31:36 17° SSW 18:34:45 10° SSE visible
31 Jan 9.8 18:47:29 10° SW 18:49:15 12° SSW 18:51:13 10° S visible
